Location: Unspecified
(33.6682°S, 0.0000°E)
Time: 21:42:14
(UTC+00:00)

Explorer 7 - All Passes

Search period start: 19 June 2019 00:00
Search period end: 29 June 2019 00:00
Orbit: 485 x 680 km, 50.3° (Epoch: 18 June)

Date Brightness Start Highest point End Pass type
(mag) Time Alt. Az. Time Alt. Az. Time Alt. Az.
19 Jun - 03:09:58 10° SSW 03:12:39 18° SSE 03:15:18 10° ESE night (unlit)
19 Jun - 04:49:40 10° SW 04:53:27 68° NW 04:57:14 10° NE visible
19 Jun - 20:27:08 10° NW 20:31:32 58° NE 20:35:41 10° ESE visible
19 Jun - 22:08:50 10° W 22:12:16 23° SSW 22:15:33 10° SSE night (unlit)
20 Jun - 03:14:39 10° SSW 03:17:57 26° SSE 03:21:12 10° E night (unlit)
20 Jun - 04:54:58 10° WSW 04:58:27 34° NW 05:01:55 10° NNE visible
20 Jun - 18:54:25 10° NNE 18:56:25 13° NE 18:58:21 10° E visible
20 Jun - 20:32:06 10° NW 20:36:34 81° SW 20:40:48 10° SE visible
20 Jun - 22:14:53 10° WSW 22:17:35 16° SSW 22:20:13 10° SSE night (unlit)
21 Jun - 01:40:54 10° S 01:41:48 11° SSE 01:42:41 10° SSE night (unlit)
21 Jun - 03:19:28 10° SW 03:23:09 43° SE 03:26:46 10° ENE night (unlit)
21 Jun - 05:00:41 10° W 05:03:22 18° NW 05:06:03 10° N visible
21 Jun - 18:57:43 10° N 19:01:19 23° NE 19:04:46 10° ESE visible
21 Jun - 20:37:21 10° WNW 20:41:41 47° SW 20:45:47 10° SE visible
21 Jun - 22:21:17 10° SW 22:23:00 12° SSW 22:24:41 10° S night (unlit)
22 Jun - 01:45:02 10° S 01:47:14 14° SSE 01:49:24 10° ESE night (unlit)
22 Jun - 03:24:26 10° SW 03:28:16 79° SE 03:32:03 10° NE night (unlit)
22 Jun - 19:01:58 10° NNW 19:06:16 40° NE 19:10:21 10° ESE visible
22 Jun - 20:42:55 10° W 20:46:52 30° SSW 20:50:38 10° SSE visible
23 Jun - 01:49:37 10° SSW 01:52:36 20° SSE 01:55:30 10° ESE night (unlit)
23 Jun - 03:29:34 10° WSW 03:33:19 53° NW 03:37:00 10° NNE night (unlit)
23 Jun - 19:06:42 10° NW 19:11:17 71° NE 19:15:37 10° SE visible
23 Jun - 20:48:45 10° WSW 20:52:08 21° SSW 20:55:23 10° SSE visible
24 Jun - 01:54:22 10° SSW 01:57:52 31° SSE 02:01:17 10° E night (unlit)
24 Jun - 03:34:58 10° WSW 03:38:16 28° NW 03:41:31 10° N night (unlit)
24 Jun - 17:33:12 10° NNE 17:36:06 16° NE 17:38:55 10° E visible
24 Jun - 19:11:45 10° WNW 19:16:21 68° SW 19:20:42 10° SE visible
24 Jun - 20:54:51 10° WSW 20:57:29 15° SSW 21:00:03 10° SSE visible
25 Jun - 00:20:09 10° S 00:21:46 12° SSE 00:23:22 10° SE night (unlit)
25 Jun - 01:59:13 10° SW 02:03:03 52° SE 02:06:45 10° ENE night (unlit)
25 Jun - 03:40:57 10° W 03:43:10 15° NW 03:45:20 10° NNW night (unlit)
25 Jun - 17:36:59 10° N 17:41:01 28° NE 17:44:53 10° ESE visible
25 Jun - 19:17:07 10° WNW 19:21:28 41° SW 19:25:38 10° SE visible
25 Jun - 21:01:18 10° SW 21:02:55 12° SSW 21:04:31 10° S night (unlit)
26 Jun - 00:24:35 10° SSW 00:27:11 16° SSE 00:29:44 10° ESE night (unlit)
26 Jun - 02:04:14 10° SW 02:08:09 84° NW 02:11:55 10° NE night (unlit)
26 Jun - 17:41:25 10° NNW 17:45:59 49° NE 17:50:20 10° ESE visible
26 Jun - 19:22:45 10° W 19:26:42 27° SSW 19:30:27 10° SSE visible
27 Jun - 00:29:14 10° SSW 00:32:31 24° SSE 00:35:41 10° E night (unlit)
27 Jun - 02:09:28 10° WSW 02:13:09 42° NW 02:16:44 10° NNE night (unlit)
27 Jun - 16:09:25 10° NE 16:10:53 11° NE 16:12:21 10° ENE daylight
27 Jun - 17:46:16 10° NW 17:51:01 85° NE 17:55:31 10° SE visible
27 Jun - 19:28:39 10° WSW 19:31:59 20° SSW 19:35:12 10° SSE visible
27 Jun - 22:55:20 10° S 22:56:15 11° SSE 22:57:10 10° SSE night (unlit)
28 Jun - 00:34:02 10° SW 00:37:46 37° SE 00:41:21 10° ENE night (unlit)
28 Jun - 02:15:01 10° WSW 02:18:05 23° NW 02:21:04 10° N night (unlit)
28 Jun - 16:12:15 10° N 16:15:46 20° NE 16:19:11 10° E daylight
28 Jun - 17:51:26 10° WNW 17:56:06 58° SW 18:00:32 10° SE visible
28 Jun - 19:34:49 10° WSW 19:37:22 15° SSW 19:39:52 10° SSE visible
28 Jun - 22:59:32 10° SSW 23:01:44 14° SSE 23:03:51 10° SE night (unlit)
